User: anonymous   Login
Location: Falniów
(50.3639°N, 19.9642°E)
Time: 01:16:14
(UTC+00:00)
Language:

Nadezhda 3 Rocket - Orbit

View from above orbital plane
View from above orbital plane
View from above satellite
View from above satellite

Ground track
Ground track

The orbit is defined by the following mean orbital elements,

1 21153U          26070.85334728 +.00000000 +00000-0 +55356-4 0 00008
2 21153  82.9300 349.4595 0027780 237.7909 184.2888 13.76344367    09
Epoch (UTC): 11 March 2026 20:28:49
Eccentricity: 0.0027780
inclination: 82.9300°
perigee height: 956 km
apogee height: 997 km
right ascension of ascending node: 349.4595°
argument of perigee: 237.7909°
revolutions per day: 13.76344367
mean anomaly at epoch: 184.2888°

The dashed part of the orbit path shows where the satellite is in the earth's shadow,  

DLR